Istanbul, Turkey

7:54 PM EEST on September 28, 2016 (GMT +0300)
Ataturk

Weather History for LTBA - April, 2013

Change the Weather History Date:

Sunday, April 14, 2013

  Actual Average Record
Temperature  
Mean Temperature 56 °F -  
Max Temperature 62 °F 59 °F 73 °F (2016)
Min Temperature 51 °F 46 °F 37 °F (1997)
Degree Days  
Heating Degree Days 8    
Growing Degree Days 6 (Base 50)    
Moisture  
Dew Point 48 °F    
Average Humidity 70    
Maximum Humidity 88    
Minimum Humidity 50    
Precipitation  
Precipitation 0.00 in - - ()
Sea Level Pressure  
Sea Level Pressure 30.13 in    
Wind  
Wind Speed 8 mph ()    
Max Wind Speed 17 mph    
Max Gust Speed -    
Visibility 6.2 miles    
Events Rain , Thunderstorm    
Averages and records for this station are not official NWS values.
T = Trace of Precipitation, MM = Missing Value Source: Averaged Metar Reports

Daily Weather History Graph

Daily Weather History Graph

Search for Another Location

Airport or City:

Trip Planner

Search our weather history database for the weather conditions in past years. The results will help you decide how hot, cold, wet, or windy it might be!

Date:

Astronomy

Apr. 14, 2013 Rise Set
Actual Time 6:27 AM EEST 7:43 PM EEST
Civil Twilight 5:58 AM EEST 8:11 PM EEST
Nautical Twilight 5:24 AM EEST 8:46 PM EEST
Astronomical Twilight 4:49 AM EEST 9:21 PM EEST
Moon 8:47 AM EEST (4/14) 11:42 PM EEST (4/14)
Length of Visible Light 14h 12m
Length of Day
13h 16m
Waxing Crescent, 15% of the Moon is Illuminated
Apr 14
Waxing Crescent
Apr 18
First Quarter
Apr 25
Full
May 2
Last Quarter
May 10
New

Hourly Weather History & Observations

Time (EEST) Temp. Dew Point Humidity Pressure Visibility Wind Dir Wind Speed Gust Speed Precip Events Conditions
12:20 AM 60.8 °F 42.8 °F 52% 30.06 in 6.2 mi NNW 3.5 mph - N/A   Partly Cloudy
12:50 AM 59.0 °F 44.6 °F 59% 30.06 in 6.2 mi NNW 3.5 mph - N/A   Scattered Clouds
1:20 AM 60.8 °F 44.6 °F 55% 30.09 in 6.2 mi NNW 5.8 mph - N/A   Scattered Clouds
1:50 AM 60.8 °F 44.6 °F 55% 30.09 in 6.2 mi NNW 6.9 mph - N/A   Mostly Cloudy
2:20 AM 62.6 °F 44.6 °F 52% 30.09 in 6.2 mi NNW 9.2 mph - N/A   Mostly Cloudy
2:50 AM 62.6 °F 48.2 °F 59% 30.09 in 6.2 mi North 6.9 mph - N/A   Scattered Clouds
3:00 AM 62 °F 48 °F 50% 30.10 in 6 mi North 6.9 mph - -   Scattered Clouds
3:20 AM 60.8 °F 50.0 °F 68% 30.09 in 6.2 mi North 9.2 mph - N/A   Scattered Clouds
3:50 AM 59.0 °F 50.0 °F 72% 30.09 in 6.2 mi North 9.2 mph - N/A   Mostly Cloudy
4:20 AM 57.2 °F 50.0 °F 77% 30.09 in 6.2 mi North 8.1 mph - N/A   Mostly Cloudy
4:50 AM 60.8 °F 50.0 °F 68% 30.12 in 6.2 mi NNE 6.9 mph - N/A   Mostly Cloudy
5:20 AM 57.2 °F 50.0 °F 77% 30.12 in 6.2 mi North 5.8 mph - N/A   Mostly Cloudy
5:50 AM 57.2 °F 50.0 °F 77% 30.12 in 6.2 mi NW 4.6 mph - N/A   Mostly Cloudy
6:20 AM 57.2 °F 50.0 °F 77% 30.12 in 6.2 mi NNW 5.8 mph - N/A   Mostly Cloudy
6:50 AM 57.2 °F 51.8 °F 82% 30.15 in 5.0 mi West 5.8 mph - N/A Rain , Thunderstorm Light Thunderstorms and Rain
7:20 AM 57.2 °F 53.6 °F 88% 30.12 in 2.8 mi Variable 6.9 mph - N/A Rain , Thunderstorm Light Thunderstorms and Rain
7:41 AM 57.2 °F 53.6 °F 88% 30.12 in 6.2 mi NE 8.1 mph - N/A   Mostly Cloudy
7:50 AM 59.0 °F 53.6 °F 82% 30.12 in 6.2 mi NE 5.8 mph - N/A   Mostly Cloudy
8:20 AM 59.0 °F 51.8 °F 77% 30.15 in 6.2 mi Variable 5.8 mph - N/A   Mostly Cloudy
8:50 AM 60.8 °F 51.8 °F 72% 30.15 in 6.2 mi North 8.1 mph - N/A   Mostly Cloudy
9:00 AM 60 °F 52 °F 68% 30.16 in 12 mi North 8.1 mph - -   Partly Cloudy
9:20 AM 62.6 °F 50.0 °F 63% 30.15 in 6.2 mi Variable 8.1 mph - N/A   Mostly Cloudy
9:50 AM 60.8 °F 50.0 °F 68% 30.15 in 6.2 mi North 16.1 mph - N/A   Mostly Cloudy
10:20 AM 62.6 °F 48.2 °F 59% 30.15 in 6.2 mi North 15.0 mph - N/A   Mostly Cloudy
10:50 AM 60.8 °F 48.2 °F 63% 30.15 in 6.2 mi North 17.3 mph - N/A   Mostly Cloudy
11:20 AM 59.0 °F 50.0 °F 72% 30.15 in 6.2 mi North 16.1 mph - N/A   Mostly Cloudy
11:50 AM 59.0 °F 48.2 °F 67% 30.18 in 6.2 mi North 17.3 mph - N/A   Mostly Cloudy
12:20 PM 59.0 °F 50.0 °F 72% 30.15 in 6.2 mi North 16.1 mph - N/A   Mostly Cloudy
12:50 PM 59.0 °F 50.0 °F 72% 30.15 in 6.2 mi North 15.0 mph - N/A   Mostly Cloudy
1:20 PM 59.0 °F 48.2 °F 67% 30.18 in 6.2 mi North 13.8 mph - N/A   Mostly Cloudy
1:50 PM 59.0 °F 50.0 °F 72% 30.15 in 6.2 mi North 13.8 mph - N/A   Mostly Cloudy
2:20 PM 60.8 °F 50.0 °F 68% 30.15 in 6.2 mi North 10.4 mph - N/A   Mostly Cloudy
2:50 PM 60.8 °F 48.2 °F 63% 30.15 in 6.2 mi North 13.8 mph - N/A   Mostly Cloudy
3:00 PM 60 °F 49 °F 57% 30.16 in 6 mi North 13.8 mph - -   Partly Cloudy
3:20 PM 59.0 °F 48.2 °F 67% 30.15 in 6.2 mi North 11.5 mph - N/A   Mostly Cloudy
3:50 PM 59.0 °F 48.2 °F 67% 30.15 in 6.2 mi North 15.0 mph - N/A   Mostly Cloudy
4:20 PM 57.2 °F 48.2 °F 72% 30.15 in 6.2 mi NNE 16.1 mph - N/A   Mostly Cloudy
4:50 PM 57.2 °F 48.2 °F 72% 30.12 in 6.2 mi North 15.0 mph - N/A   Mostly Cloudy
5:20 PM 57.2 °F 48.2 °F 72% 30.15 in 6.2 mi NNE 11.5 mph - N/A   Mostly Cloudy
5:50 PM 57.2 °F 48.2 °F 72% 30.15 in 6.2 mi NNE 10.4 mph - N/A   Mostly Cloudy
6:20 PM 57.2 °F 48.2 °F 72% 30.12 in 6.2 mi NNE 12.7 mph - N/A   Mostly Cloudy
6:50 PM 57.2 °F 46.4 °F 67% 30.15 in 6.2 mi NNE 12.7 mph - N/A   Mostly Cloudy
7:20 PM 57.2 °F 48.2 °F 72% 30.15 in 6.2 mi NE 10.4 mph - N/A   Mostly Cloudy
7:50 PM 57.2 °F 48.2 °F 72% 30.15 in 6.2 mi Variable 11.5 mph - N/A   Mostly Cloudy
8:20 PM 53.6 °F 46.4 °F 77% 30.15 in 6.2 mi NE 11.5 mph - N/A   Mostly Cloudy
8:50 PM 53.6 °F 46.4 °F 77% 30.15 in 6.2 mi NE 12.7 mph - N/A   Mostly Cloudy
9:00 PM 53 °F 46 °F 70% 30.17 in 6 mi NE 12.7 mph - -   Partly Cloudy
9:20 PM 53.6 °F 46.4 °F 77% 30.15 in 6.2 mi NE 12.7 mph - N/A   Mostly Cloudy
9:50 PM 51.8 °F 46.4 °F 82% 30.15 in 6.2 mi NNE 12.7 mph - N/A   Mostly Cloudy
10:20 PM 51.8 °F 46.4 °F 82% 30.15 in 6.2 mi NNE 9.2 mph - N/A   Mostly Cloudy
10:50 PM 51.8 °F 44.6 °F 76% 30.15 in 6.2 mi NNE 8.1 mph - N/A   Mostly Cloudy
11:20 PM 51.8 °F 44.6 °F 76% 30.15 in 6.2 mi NE 8.1 mph - N/A   Mostly Cloudy
11:50 PM 51.8 °F 44.6 °F 76% 30.15 in 6.2 mi NNE 8.1 mph - N/A   Mostly Cloudy